TimeMST,TemperatureF,Dew PointF,Humidity,Sea Level PressureIn,VisibilityMPH,Wind Direction,Wind SpeedMPH,Gust SpeedMPH,PrecipitationIn,Events,Conditions,WindDirDegrees,DateUTC
12:53 AM,27.0,12.0,53,30.12,10.0,NNW,5.8,-,N/A,,Clear,330,2014-02-17 07:53:00
1:53 AM,25.0,12.0,58,30.13,10.0,SW,6.9,-,N/A,,Clear,220,2014-02-17 08:53:00
2:53 AM,21.9,10.9,63,30.15,10.0,SSW,5.8,-,N/A,,Clear,200,2014-02-17 09:53:00
3:53 AM,24.1,9.0,53,30.14,10.0,SSE,10.4,-,N/A,,Clear,160,2014-02-17 10:53:00
4:53 AM,18.0,7.0,62,30.18,10.0,SSW,9.2,-,N/A,,Clear,210,2014-02-17 11:53:00
5:53 AM,16.0,5.0,62,30.22,10.0,SW,5.8,-,N/A,,Clear,220,2014-02-17 12:53:00
6:53 AM,15.1,3.9,61,30.26,10.0,SSE,4.6,-,N/A,,Clear,160,2014-02-17 13:53:00
7:53 AM,15.1,5.0,64,30.27,10.0,Calm,Calm,-,N/A,,Clear,0,2014-02-17 14:53:00
8:53 AM,21.9,6.1,51,30.26,10.0,Calm,Calm,-,N/A,,Clear,0,2014-02-17 15:53:00
9:53 AM,28.9,3.0,33,30.21,10.0,Calm,Calm,-,N/A,,Clear,0,2014-02-17 16:53:00
10:53 AM,34.0,6.1,31,30.17,10.0,NW,3.5,-,N/A,,Clear,320,2014-02-17 17:53:00
11:53 AM,39.9,6.1,25,30.11,10.0,Calm,Calm,-,N/A,,Clear,0,2014-02-17 18:53:00
12:53 PM,41.0,9.0,27,30.06,10.0,NW,3.5,-,N/A,,Clear,320,2014-02-17 19:53:00
1:53 PM,43.0,9.0,25,30.03,10.0,North,8.1,-,N/A,,Clear,350,2014-02-17 20:53:00
2:53 PM,45.0,10.9,25,30.00,10.0,North,4.6,-,N/A,,Clear,350,2014-02-17 21:53:00
3:53 PM,44.1,6.1,21,29.98,10.0,NW,3.5,-,N/A,,Clear,320,2014-02-17 22:53:00
4:53 PM,39.9,10.9,31,30.02,10.0,NW,5.8,-,N/A,,Clear,310,2014-02-17 23:53:00
5:53 PM,35.1,16.0,46,30.06,10.0,SW,4.6,-,N/A,,Clear,220,2014-02-18 00:53:00
6:53 PM,34.0,15.1,46,30.07,10.0,Variable,4.6,-,N/A,,Clear,0,2014-02-18 01:53:00
7:53 PM,33.1,14.0,46,30.06,10.0,WSW,6.9,-,N/A,,Clear,250,2014-02-18 02:53:00
8:53 PM,34.0,12.0,40,30.02,10.0,SE,5.8,-,N/A,,Clear,130,2014-02-18 03:53:00
9:53 PM,33.1,14.0,46,30.00,10.0,SSW,6.9,-,N/A,,Clear,200,2014-02-18 04:53:00
10:53 PM,30.9,15.1,52,29.97,10.0,SW,6.9,-,N/A,,Clear,230,2014-02-18 05:53:00
11:53 PM,30.0,14.0,51,29.92,10.0,SSW,3.5,-,N/A,,Clear,210,2014-02-18 06:53:00